Location: Albany
(35.0000°S, 118.0000°E)
Time: 10:01:47
(UTC-05:00)

Vanguard 3 - Visible Passes

Search period start: 17 January 2017 00:00
Search period end: 27 January 2017 00:00
Orbit: 508 x 3265 km, 33.3° (Epoch: 16 January)

Date Brightness Start Highest point End Pass type
(mag) Time Alt. Az. Time Alt. Az. Time Alt. Az.
17 Jan 10.3 12:04:26 11° ENE 12:04:26 11° ENE 12:06:01 10° ENE visible
17 Jan 9.0 14:09:00 29° NNW 14:13:42 49° NNE 14:27:53 10° E visible
18 Jan 9.3 12:59:28 29° NE 13:00:08 29° NE 13:10:02 10° E visible
18 Jan 9.2 15:04:04 16° WNW 15:12:17 71° NNE 15:28:52 10° E visible
19 Jan 10.2 11:49:55 11° ENE 11:49:55 11° ENE 11:50:54 10° ENE visible
19 Jan 8.7 13:54:31 37° NNW 13:57:51 53° NNE 14:11:16 10° E visible
20 Jan 9.1 12:44:58 31° NE 12:44:58 31° NE 12:53:47 10° E visible
20 Jan 8.9 14:49:33 20° WNW 14:56:27 74° NNE 15:12:09 10° E visible
21 Jan 10.2 11:35:25 10° ENE 11:35:25 10° ENE 11:35:33 10° ENE visible
21 Jan 8.4 13:40:00 46° NNW 13:42:08 56° NNE 13:54:43 10° E visible
21 Jan 9.3 15:45:52 10° W 15:55:44 84° N 16:13:07 10° E visible
22 Jan 9.1 12:30:28 31° ENE 12:30:28 31° ENE 12:37:34 10° E visible
22 Jan 8.7 14:35:03 24° WNW 14:40:45 77° NNE 14:55:29 10° E visible
23 Jan 8.1 13:25:31 56° N 13:26:33 60° NNE 13:38:14 10° E visible
23 Jan 9.1 15:30:49 10° W 15:39:56 84° N 15:56:24 10° E visible
24 Jan 9.2 12:16:00 28° ENE 12:16:00 28° ENE 12:21:25 10° E visible
24 Jan 8.5 14:20:36 30° WNW 14:25:10 79° N 14:38:52 10° E visible
25 Jan 7.9 13:11:05 64° NNE 13:11:05 64° NNE 13:21:50 10° E visible
25 Jan 8.9 15:15:49 10° W 15:24:14 83° N 15:39:41 10° E visible
26 Jan 9.4 12:01:37 23° E 12:01:37 23° E 12:05:22 10° E visible
26 Jan 8.2 14:06:12 37° WNW 14:09:39 80° N 14:22:20 10° E visible
